This is the latest recevied weather packets stored in our database for station/object LX0APE-4. If no packets are shown the sender has not sent any weather packets the latest 10 day(s).
| Time | Temp. | Humidity | Pressure | Rain* | Wind** | Luminosity | Snow |
|---|---|---|---|---|---|---|---|
| 1776984439 | -27.22° C | 35% | 5021.2 hPa | 0 mm | - | - | - |
| 1776984139 | 10.56° C | 35% | 5021.2 hPa | 0 mm | - | - | - |
| 1776983840 | 10.56° C | 35% | 5021.3 hPa | 0 mm | - | - | - |
| 1776983539 | 11.11° C | 35% | 5021.2 hPa | 0 mm | - | - | - |
| 1776983239 | 11.11° C | 34% | 5021.2 hPa | 0 mm | - | - | - |
| 1776982940 | 11.11° C | 34% | 5021.1 hPa | 0 mm | - | - | - |
| 1776982640 | 11.67° C | 33% | 5021.1 hPa | 0 mm | - | - | - |
| 1776982340 | 11.67° C | 33% | 5021.2 hPa | 0 mm | - | - | - |
| 1776982040 | 11.67° C | 33% | 5021 hPa | 0 mm | - | - | - |
| 1776981740 | 11.67° C | 33% | 5021.2 hPa | 0 mm | - | - | - |
| 1776981443 | 11.67° C | 33% | 5020.9 hPa | 0 mm | - | - | - |
| 1776981140 | 11.67° C | 33% | 5021 hPa | 0 mm | - | - | - |
| 1776980841 | 12.22° C | 32% | 5021.1 hPa | 0 mm | - | - | - |
| 1776980541 | 12.22° C | 32% | 5021.1 hPa | 0 mm | - | - | - |
| 1776980240 | 12.22° C | 32% | 5021.1 hPa | 0 mm | - | - | - |
| 1776979940 | 12.22° C | 31% | 5021.1 hPa | 0 mm | - | - | - |
| 1776979640 | 12.22° C | 31% | 5021.1 hPa | 0 mm | - | - | - |
| 1776979340 | 12.22° C | 31% | 5021 hPa | 0 mm | - | - | - |
| 1776979040 | 12.78° C | 30% | 5021.1 hPa | 0 mm | - | - | - |
| 1776978740 | 12.78° C | 30% | 5021.3 hPa | 0 mm | - | - | - |
| 1776978440 | 12.78° C | 30% | 5021.1 hPa | 0 mm | - | - | - |
| 1776978140 | 12.78° C | 29% | 5021.2 hPa | 0 mm | - | - | - |
| 1776977840 | 12.78° C | 29% | 5021.2 hPa | 0 mm | - | - | - |
| 1776977540 | 12.78° C | 29% | 5021.1 hPa | 0 mm | - | - | - |
| 1776977240 | 12.78° C | 29% | 5021.1 hPa | 0 mm | - | - | - |
* Rain latest hour (hover to see other rain measurements)
** Current wind speed in m/s (hover to see current wind gust speed)